Location: Stanford
(52.2833°N, 2.4333°W)
Time: 02:09:02
(UTC+00:00)

Cosmos 1833 Rocket - Pass Details

Date: 22 January 2021
Orbit: 833 x 839 km, 71.0° (Epoch: 28 February)

Event Time Altitude Azimuth Distance (km) Brightness Sun altitude
Rises 18:55:49 0° 329° (NNW) 3,393 6.2 -20.5°
Reaches altitude 10° 18:58:18 10° 333° (NNW) 2,456 5.4 -20.9°
Maximum altitude 19:03:53 61° 54° (NE) 948 2.6 -21.7°
Enters shadow 19:05:24 45° 109° (ESE) 1,129 2.9 -21.9°
